www.pogodaiklimat.ru

Погода и климат >> Архив погоды >> Индия >> Андхра-Прадеш >> Кавали


ПОГОДА в Кавали

  • Прогноз погоды в Кавали
  • Монитор погоды в Кавали

АРХИВ ПОГОДЫ в Кавали

Время (UTC), дата Ветер
(напр.,м/с)
 
Видим.   Явления Облачность Т
(С)
Тd
(С)
f
(%)
Тe
(С)
Тes
(С)
Комфортность P
(гПа)
Po
(гПа)
Тmin
(С)
Tmax
(С)
R
(мм)
R24
(мм)
S
(см)
09 12.08 СЗ 3 10 км 8/4 600 м
[Cu Sc Ac trans Ci fib]
+36.8 +20.2 38 +43 +48 опасность
перегрева
1002.0 999.6
12 12.08 СЗ 3 10 км 9/4 600 м
[Cu Sc Ac As Ci fib]
+36.0 +20.6 41 +43 +43 опасность
перегрева
1001.2 998.8 +37.2
15 12.08 СЗ 1 4000 м 8/4 600 м
[Cu Sc Ac trans Ci fib]
+33.8 +22.1 51 +43 +43 опасность
перегрева
1003.2 1000.8
18 12.08 штиль 0 4000 м 8/4 600 м
[Cu Sc Ac trans Ci fib]
+32.4 +23.1 58 +43 +43 опасность
перегрева
1003.8 1001.4
21 12.08 ЮЗ 2 4000 м 5/4 600 м
[Cu Sc Ac trans]
+31.2 +22.1 58 +40 +40 очень
душно
1002.1 999.7
00 13.08 штиль 0 4000 м 5/4 600 м
[Cu Sc Ac trans]
+30.2 +21.6 60 +38 +38 очень
душно
1002.5 1000.1
03 13.08 СЗ 2 10 км 5/3 600 м
[Sc Ac trans Ci fib]
+31.0 +22.2 60 +40 +45 очень
душно
1004.4 1002.0 +28.4 +37.2
06 13.08 З 3 10 км 5/3 600 м
[Sc Ac trans Ci fib]
+35.2 +21.4 45 +43 +55 опасность
перегрева
1004.7 1002.3
09 13.08 СЗ 2 10 км 8/4 600 м
[Cu Sc Ac trans Ci fib]
+37.2 +20.7 38 +43 +50 опасность
перегрева
1002.6 1000.2
12 13.08 СЗ 1 10 км 9/4 600 м
[Cu Sc As trans]
+36.4 +21.1 41 +43 +44 опасность
перегрева
1001.9 999.5 +38.0
15 13.08 Ю 2 4000 м 5/3 600 м
[Sc Ci fib]
+31.0 +23.2 63 +41 +41 опасность
перегрева
1004.8 1002.4
18 13.08 ЮЗ 2 4000 м 8/4 600 м
[Sc Ac und]
+30.0 +24.0 70 +41 +41 опасность
перегрева
1006.5 1004.1
21 13.08 штиль 0 4000 м {дождь} 10/5 600 м
[Cu Sc Ac As]
+27.2 +24.0 83 +38 +38 очень
душно
1004.7 1002.3 1
00 14.08 ЮЗ 1 4000 м {дождь} 9/4 600 м
[Sc Ac trans]
+27.0 +24.1 84 +37 +37 очень
душно
1004.9 1002.4 1
03 14.08 штиль 0 10 км 3/0
[Ci sp]
+29.2 +24.3 75 +41 +51 опасность
перегрева
1006.1 1003.7 +25.0 +38.0 1
06 14.08 СЗ 2 10 км 4/4 600 м
[Sc diur, vesp]
+34.4 +22.2 49 +43 +57 опасность
перегрева
1005.7 1003.3
09 14.08 ЮЗ 1 10 км 6/4 600 м
[Sc Ac trans Ci sp]
+37.2 +21.1 39 +44 +53 опасность
перегрева
1003.2 1000.8
12 14.08 СЗ 2 10 км 5/4 600 м
[Sc Ac trans]
+36.0 +20.6 41 +43 +43 опасность
перегрева
1002.5 1000.1 +38.0
15 14.08 Ю 2 4000 м 6/4 600 м
[Cu Sc Ac trans]
+31.4 +25.5 71 +46 +46 опасность
перегрева
1006.0 1003.6
18 14.08 штиль 0 4000 м дождь 10/6 300 м
[Cu Sc Ac As]
+27.8 +24.9 84 +40 +40 очень
душно
1007.8 1005.4 4
21 14.08 ЮВ 1 4000 м дождь 10/8 300 м
[Cu Sc Ac As]
+26.4 +24.7 90 +37 +37 очень
душно
1006.7 1004.2 9
00 15.08 штиль 0 4000 м морось {дождь} 10/8 300 м
[Cu Sc Ac As]
+25.8 +24.1 90 +36 +36 очень
душно
1007.4 1004.9 16
03 15.08 штиль 0 10 км 4/3 600 м
[Sc Ac trans]
+27.4 +25.4 89 +40 +47 очень
душно
1007.9 1005.5 +24.2 +38.0 16
06 15.08 СЗ 2 10 км 3/3 600 м
[Sc]
+33.6 +23.6 56 +45 +61 опасность
перегрева
1007.2 1004.8
09 15.08 СЗ 2 10 км 5/4 600 м
[Cu Sc Ci fib]
+36.2 +21.6 43 +44 +54 опасность
перегрева
1004.5 1002.1
12 15.08 ЮВ 1 10 км 8/5 600 м
[Cu Sc Ac trans]
+34.8 +25.0 57 +48 +49 опасность
перегрева
1003.7 1001.3 +37.0
15 15.08 ЮВ 1 4000 м {морось} 6/4 600 м
[Cu Sc Ac trans]
+30.0 +25.8 78 +45 +45 опасность
перегрева
1005.9 1003.5 0.1
18 15.08 ЮЗ 2 4000 м {морось} 8/4 600 м
[Sc Ac trans Ci fib]
+29.8 +25.3 77 +44 +44 опасность
перегрева
1007.2 1004.8 0.1
21 15.08 штиль 0 4000 м 6/4 600 м
[Sc Ac trans]
+28.4 +24.4 79 +40 +40 очень
душно
1006.1 1003.7 0.1
00 16.08 штиль 0 4000 м 6/3 600 м
[Sc Ac trans Ci fib]
+28.0 +23.7 77 +38 +38 очень
душно
1005.9 1003.5 0.1
03 16.08 З 1 10 км 8/3 600 м
[Sc Ac trans Ci fib]
+29.4 +23.6 71 +40 +44 очень
душно
1007.3 1004.9 +26.6 +37.0 0.1
06 16.08 З 2 10 км 6/3 600 м
[Sc Ac trans Ci fib]
+33.4 +23.3 56 +44 +57 опасность
перегрева
1006.8 1004.4
09 16.08 СЗ 1 10 км 6/3 600 м
[Cu Sc Ac trans Ci sp]
+36.4 +22.2 44 +45 +55 опасность
перегрева
1004.0 1001.6
12 16.08 ЮВ 1 10 км 5/3 600 м
[Sc Ac trans Ci fib]
+32.8 +23.6 59 +44 +45 опасность
перегрева
1003.0 1000.6 +36.8
15 16.08 штиль 0 10 км 6/4 600 м
[Cu Sc Ac trans]
+30.8 +24.5 69 +43 +43 опасность
перегрева
1004.9 1002.5
18 16.08 штиль 0 4000 м 5/4 600 м
[Cu Sc Ac trans]
+30.0 +25.8 78 +45 +45 опасность
перегрева
1005.6 1003.2
21 16.08 штиль 0 4000 м 8/4 600 м
[Cu Sc Ac trans Ci sp]
+29.0 +25.3 80 +42 +42 опасность
перегрева
1004.3 1001.9
00 17.08 штиль 0 4000 м 8/5 600 м
[Cu Sc Ac trans]
+28.8 +24.2 76 +40 +40 очень
душно
1004.5 1002.1
03 17.08 СЗ 1 4000 м слаб. дождь 10/5 300 м
[St As op]
+29.0 +24.4 76 +41 +42 опасность
перегрева
1006.8 1004.4 +27.2 +36.8 0.1
06 17.08 СЗ 2 4000 м {дождь} 10/5 600 м
[St Ac As]
+30.4 +23.8 68 +42 +45 опасность
перегрева
1006.9 1004.5 2
09 17.08 СЗ 2 4000 м 10/5 600 м
[St Ac As]
+30.0 +23.3 67 +40 +43 очень
душно
1004.8 1002.4 2
12 17.08 З 2 10 км 6/3 600 м
[Sc Ac trans Ci fib]
+31.8 +23.1 60 +42 +43 опасность
перегрева
1003.8 1001.4 +32.2 2
15 17.08 штиль 0 4000 м 8/4 600 м
[Sc Ac trans Ci fib]
+30.0 +24.3 72 +42 +42 опасность
перегрева
1005.1 1002.7 2
18 17.08 штиль 0 4000 м 5/3 600 м
[Sc Ci sp]
+29.2 +24.3 75 +41 +41 опасность
перегрева
1005.7 1003.3 2
21 17.08 штиль 0 4000 м слаб. морось 10/5 600 м
[St Ac As]
+29.0 +24.7 78 +41 +41 опасность
перегрева
1005.0 1002.6 2
00 18.08 штиль 0 4000 м слаб. дождь {морось} 10/5 600 м
[Cu Sc Ac As]
+26.2 +24.2 89 +36 +36 очень
душно
1005.6 1003.1 3
03 18.08 штиль 0 4000 м сильн. дождь 10/6 300 м
[St Ac As]
+26.6 +24.6 89 +38 +39 очень
душно
1008.1 1005.6 +25.0 +32.2 17
06 18.08 Ю 1 10 км {дождь} 8/3 600 м
[Sc Ac trans Ci sp]
+29.4 +26.0 82 +44 +56 опасность
перегрева
1007.7 1005.3 1
09 18.08 ЮЗ 2 4000 м 10/5 300 м
[Cu Sc Ac As]
+31.0 +26.6 77 +47 +50 опасность
перегрева
1005.5 1003.1 1
12 18.08 С 3 4000 м 10/8 300 м
[Cu Sc Ac As]
+30.8 +25.4 73 +45 +45 опасность
перегрева
1005.5 1003.1 +31.8 1
15 18.08 С 2 4000 м 8/5 600 м
[Cu Sc Ac trans]
+28.0 +24.3 80 +39 +39 очень
душно
1007.6 1005.2 1
18 18.08 штиль 0 4000 м 6/4 600 м
[Cu Sc Ac trans]
+27.6 +24.4 83 +39 +39 очень
душно
1008.2 1005.8 1
21 18.08 штиль 0 4000 м 9/8 600 м
[Cu Sc Ac trans]
+27.2 +24.6 86 +39 +39 очень
душно
1007.0 1004.6 1
00 19.08 штиль 0 4000 м 6/4 600 м
[Cu Sc Ac trans]
+26.6 +24.3 87 +37 +37 очень
душно
1007.6 1005.1 1
03 19.08 ЮЗ 2 10 км 5/3 600 м
[Sc Ac trans Ci sp]
+29.0 +24.7 78 +41 +47 опасность
перегрева
1008.2 1005.8 +25.2 +31.8 1
06 19.08 СЗ 1 10 км 4/3 600 м
[Sc Ci sp]
+34.0 +24.0 56 +46 +63 опасность
перегрева
1007.4 1005.0

 

Местоположение метеостанции Кавали (Андхра-Прадеш, Индия): широта 14.90 долгота 79.98 высота над уровнем моря 17 м.

В архиве по умолчанию представлена погода в Кавали за последнюю неделю. Архивные данные за месяц целиком и за предыдущие месяцы, начиная с января 2011 года, Вы можете получить, выбрав интересующий диапазон дат из раскрывающегося списка и нажав кнопку "Ввод!".


*Определитесь, кто Вы:
робот инопланетянин человек

Внимание! Время в таблицах - всемирное. Для получения местного времени необходимо прибавить поправку, которая равна 5.5 ч.

Смотрите также архив погоды в соседних городах и на ближайших метеорологических станциях:

Погода в Неллуру (Андхра-Прадеш, Индия) (50 км)
Погода в Онголе (Андхра-Прадеш, Индия) (65 км)
Погода в Бапатле (Андхра-Прадеш, Индия) (123 км)
Погода в Тирупати (Андхра-Прадеш, Индия) (143 км)
Погода в Рентчайнтале (Андхра-Прадеш, Индия) (189 км)
Погода в Мачилипатнаме (Андхра-Прадеш, Индия) (191 км)
Погода в Терутани (Тамилнад, Индия) (201 км)
Погода в Ганнавараме (Андхра-Прадеш, Индия) (201 км)
Погода в Ченнаи (Тамилнад, Индия) (205 км)
Погода в Нандигаме (Андхра-Прадеш, Индия) (212 км)

Пояснения к столбцам:

Ветер - указаны скорость ветра в м/с - средняя за 10 мин, порывы в срок и между сроками (в фигурных скобках) и направление, откуда дует ветер: С - северный, СВ - северо-восточный, В - восточный, ЮВ - юго-восточный, Ю - южный, ЮЗ - юго-западный, З - западный, СЗ - северо-западный.
Видимость - горизонтальная дальность видимости в метрах или километрах. При видимости от 1 до 10 км при отсутствии осадков обычно наблюдается дымка, при ухудшении видимости до 1 км и менее - туман. В сухую погоду видимость может ухудшаться дымом, пылью или мглою.
Явления - указаны атмосферные явления, наблюдавшиеся в срок или в последний час перед сроком; фигурными скобками обозначены явления, наблюдавшиеся между сроками (за 1-3 часа до срока); квадратными скобками обозначены град или гололедные отложения с указанием их диаметра в мм.
Облачность - указаны через наклонную черту общая и нижняя облачность в баллах и высота нижней границы облаков в метрах; квадратными скобками обозначены формы облаков: Ci - перистые, Cs - перисто-слоистые, Cc - перисто-кучевые, Ac - высококучевые, As - высокослоистые, Sc - слоисто-кучевые, Ns - слоисто-дождевые, Cu - кучевые, Cb - кучево-дождевые. Подробнее классификацию облаков см. в Атласе облаков (PDF).
T - Температура воздуха - температура, измеренная на высоте 2 м над землей.
Td - Температура точки росы - температура, при понижении до которой содержащийся в воздухе водяной пар достигнет насыщения.
f - Относительная влажность воздуха - влажноcть воздуха, измеренная на высоте 2 м над землей.
Te - Эффективная температура - температура, которую ощущает одетый по сезону человек в тени. Характеристика душности погоды. При расчете учитывается влияние влажности воздуха и скорости ветра на теплоощущения человека.
Tes - Эффективная температура на солнце - температура, которую ощущает человек, с поправкой на солнечный нагрев. Характеристика знойности погоды. Зависит от высоты солнца над горизонтом, облачности и скорости ветра. Ночью, в пасмурную погоду, а также при ветре 12 м/с и более поправка равна нулю.
P - Атмосферное давление - приведенное к уровню моря атмосферное давление.
Po - Атмосферное давление - измеренное на уровне метеостанции атмосферное давление.
Tmin - Минимальная температура - минимум температуры воздуха на высоте 2 м над землей.
Tmax - Максимальная температура - максимум температуры воздуха на высоте 2 м над землей.
R - Количество осадков - Количество выпавших осадков за период времени, мм. При наведении курсора мыши на число - период времени, за который выпало указанное количество осадков.
R24 - Количество осадков - Количество выпавших осадков за 24 часа, мм.
S - Снежный покров - Высота снежного покрова, см. При наведении курсора мыши на число - состояние снежного покрова и степень покрытия местности в баллах.